Voltar ao catálogo

THOR ABLESTAR DEB

AtivoLEO
NORAD 545·DEBRIS·🇺🇸 United States

Lançado Jun 29, 1961 de Cape Canaveral Space Force Station

Loading…

Próximas Passagens (próximas 24 horas)

TLE

AtualizadoSource: Space-Track

Época: Sep 13, 2026, 20:46 UTC

1 00545U 61015GE  26256.86537783  .00000160  00000-0  23471-3 0  9992
2 00545  67.2308  68.7926 0158090 338.7986  20.6580 13.71131107242449

Acompanhe THOR ABLESTAR DEB em tempo real com AllMySat

Download on the App Store